Location: Cran-Gévrier
(45.9039°N, 6.1012°E)
Time: 20:49:20
(UTC+00:00)

Cosmos 1570 Rocket - Pass Details

Date: 09 February 2023
Orbit: 762 x 787 km, 74.1° (Epoch: 22 March)

Event Time Altitude Azimuth Distance (km) Brightness Sun altitude
Rises 18:44:33 0° 336° (NNW) 3,290 7.6 -19.9°
Reaches altitude 10° 18:46:57 10° 335° (NNW) 2,356 6.8 -20.3°
Maximum altitude 18:52:18 75° 252° (WSW) 817 4.2 -21.2°
Drops below altitude 10° 18:57:35 10° 167° (SSE) 2,327 6.3 -22.1°
Enters shadow 18:59:31 - 166° (SSE) 3,079 7.0 -22.5°
